When you browse on this site, cookies collect data to enhance your experience and personalize the content and advertising you see.
Visit our Privacy Policy to learn more. By continuing to use the site, you agree to this use of cookies and data.
  • In Norway
  • List of Countries
  • For 7 days
  • Water Temperature
  • Satellite Maps
  • Weather Map
  • Weather Widgets
  • user-avatar
    Login

    Hourly Weather Sidi Bu-l-Abbas

    Today, 20 January, Sunday

    Time Temperature Precipitation Wind Pressure Humidity
    00:00 +10°C° 0 mm 4 mps 718 mmHg 77%
    01:00 +10°C° 0 mm 4 mps 718 mmHg 77%
    02:00 +10°C° 0 mm 4 mps 717 mmHg 78%
    03:00 +8°C° 0 mm 4 mps 717 mmHg 78%
    04:00 +8°C° 0.9 mm 4 mps 717 mmHg 79%
    05:00 +9°C° 0.9 mm 5 mps 716 mmHg 81%
    06:00 +9°C° 0 mm 7 mps 716 mmHg 83%
    07:00 +10°C° 0 mm 8 mps 716 mmHg 81%
    08:00 +10°C° 0 mm 9 mps 716 mmHg 78%
    09:00 +11°C° 0 mm 10 mps 716 mmHg 75%
    10:00 +12°C° 0.3 mm 12 mps 716 mmHg 72%
    11:00 +12°C° 0.3 mm 13 mps 715 mmHg 69%
    12:00 +13°C° 0 mm 13 mps 715 mmHg 66%
    13:00 +12°C° 0.3 mm 14 mps 715 mmHg 66%
    14:00 +12°C° 0.3 mm 14 mps 715 mmHg 67%
    15:00 +11°C° 0.3 mm 15 mps 715 mmHg 67%
    16:00 +10°C° 0.2 mm 13 mps 715 mmHg 72%
    17:00 +9°C° 0.2 mm 12 mps 716 mmHg 78%
    18:00 +8°C° 0.2 mm 11 mps 716 mmHg 83%
    19:00 +8°C° 2.7 mm 11 mps 717 mmHg 87%
    20:00 +7°C° 2.7 mm 10 mps 717 mmHg 90%
    21:00 +7°C° 2.7 mm 10 mps 718 mmHg 94%
    22:00 +7°C° 1.4 mm 9 mps 718 mmHg 92%
    23:00 +8°C° 1.4 mm 7 mps 718 mmHg 90%

    Tomorrow, 21 January, Monday

    Time Temperature Precipitation Wind Pressure Humidity
    00:00 +8°C° 1.4 mm 6 mps 719 mmHg 88%
    01:00 +8°C° 0.4 mm 5 mps 719 mmHg 87%
    02:00 +8°C° 0.4 mm 4 mps 719 mmHg 85%
    03:00 +9°C° 0.4 mm 3 mps 719 mmHg 84%
    04:00 +8°C° 0.1 mm 3 mps 719 mmHg 83%
    05:00 +8°C° 0.1 mm 3 mps 719 mmHg 81%
    06:00 +8°C° 0.1 mm 3 mps 720 mmHg 79%
    07:00 +8°C° 0 mm 3 mps 720 mmHg 77%
    08:00 +8°C° 0 mm 3 mps 720 mmHg 75%
    09:00 +7°C° 0 mm 4 mps 721 mmHg 73%
    10:00 +8°C° 0.1 mm 4 mps 721 mmHg 70%
    11:00 +8°C° 0.1 mm 4 mps 721 mmHg 68%
    12:00 +8°C° 0.1 mm 4 mps 721 mmHg 65%
    13:00 +8°C° 0.2 mm 4 mps 721 mmHg 66%
    14:00 +8°C° 0.2 mm 4 mps 721 mmHg 67%
    15:00 +9°C° 0.2 mm 3 mps 721 mmHg 68%
    16:00 +9°C° 0.1 mm 3 mps 721 mmHg 71%
    17:00 +8°C° 0.1 mm 2 mps 721 mmHg 75%
    18:00 +7°C° 0.1 mm 2 mps 721 mmHg 78%
    19:00 +7°C° 0 mm 2 mps 721 mmHg 80%
    20:00 +7°C° 0 mm 2 mps 721 mmHg 82%
    21:00 +6°C° 0 mm 2 mps 722 mmHg 84%
    22:00 +6°C° 0 mm 2 mps 722 mmHg 81%
    23:00 +6°C° 0 mm 2 mps 722 mmHg 78%

    Day after tomorrow, 22 January, Tuesday

    Time Temperature Precipitation Wind Pressure Humidity
    00:00 +6°C° 0 mm 2 mps 722 mmHg 76%
    01:00 +5°C° 0.1 mm 3 mps 722 mmHg 75%
    02:00 +5°C° 0.1 mm 3 mps 722 mmHg 75%
    03:00 +5°C° 0.1 mm 3 mps 722 mmHg 74%
    04:00 +4°C° 0.1 mm 3 mps 721 mmHg 75%
    05:00 +4°C° 0.1 mm 3 mps 721 mmHg 75%
    06:00 +4°C° 0.1 mm 3 mps 721 mmHg 76%
    07:00 +5°C° 0 mm 3 mps 721 mmHg 73%
    08:00 +5°C° 0 mm 4 mps 722 mmHg 69%
    09:00 +6°C° 0 mm 4 mps 722 mmHg 66%
    10:00 +7°C° 0 mm 6 mps 722 mmHg 64%
    11:00 +8°C° 0 mm 7 mps 721 mmHg 63%
    12:00 +7°C° 0 mm 9 mps 721 mmHg 62%
    13:00 +8°C° 0 mm 10 mps 720 mmHg 60%
    14:00 +8°C° 0 mm 10 mps 720 mmHg 57%
    15:00 +8°C° 0 mm 11 mps 719 mmHg 55%
    16:00 +8°C° 0 mm 11 mps 718 mmHg 61%
    17:00 +7°C° 0 mm 10 mps 718 mmHg 68%
    18:00 +7°C° 0 mm 10 mps 718 mmHg 75%
    19:00 +7°C° 0.3 mm 10 mps 718 mmHg 77%
    20:00 +7°C° 0.3 mm 11 mps 718 mmHg 78%
    21:00 +7°C° 0.3 mm 12 mps 718 mmHg 80%
    22:00 +5°C° 1.6 mm 12 mps 718 mmHg 84%
    23:00 +5°C° 1.6 mm 12 mps 718 mmHg 88%

    23 January, Wednesday

    Time Temperature Precipitation Wind Pressure Humidity
    00:00 +5°C° 1.6 mm 12 mps 717 mmHg 91%
    01:00 +5°C° 3.1 mm 12 mps 717 mmHg 91%
    02:00 +5°C° 3.1 mm 12 mps 717 mmHg 90%
    03:00 +5°C° 3.1 mm 12 mps 716 mmHg 90%
    04:00 +6°C° 2.5 mm 11 mps 717 mmHg 89%
    05:00 +6°C° 2.5 mm 9 mps 717 mmHg 88%
    06:00 +6°C° 2.5 mm 8 mps 717 mmHg 87%
    07:00 +8°C° 0.4 mm 7 mps 717 mmHg 84%
    08:00 +8°C° 0.4 mm 7 mps 717 mmHg 80%
    09:00 +9°C° 0.4 mm 6 mps 718 mmHg 76%
    10:00 +9°C° 0.1 mm 8 mps 717 mmHg 76%
    11:00 +10°C° 0.1 mm 9 mps 717 mmHg 76%
    12:00 +9°C° 0.1 mm 11 mps 717 mmHg 76%
    13:00 +9°C° 0 mm 12 mps 716 mmHg 71%
    14:00 +9°C° 0 mm 13 mps 716 mmHg 66%
    15:00 +9°C° 0 mm 14 mps 715 mmHg 61%
    16:00 +9°C° 0 mm 13 mps 715 mmHg 66%
    17:00 +8°C° 0 mm 13 mps 715 mmHg 71%
    18:00 +7°C° 0 mm 12 mps 715 mmHg 75%
    19:00 +7°C° 0 mm 13 mps 716 mmHg 77%
    20:00 +8°C° 0 mm 13 mps 716 mmHg 79%
    21:00 +8°C° 0 mm 14 mps 716 mmHg 80%
    22:00 +8°C° 0.1 mm 14 mps 716 mmHg 82%
    23:00 +8°C° 0.1 mm 14 mps 716 mmHg 83%

    24 January, Thursday

    Time Temperature Precipitation Wind Pressure Humidity
    00:00 +8°C° 0.1 mm 14 mps 715 mmHg 85%
    01:00 +8°C° 0.1 mm 13 mps 715 mmHg 85%
    02:00 +8°C° 0.1 mm 12 mps 715 mmHg 86%
    03:00 +7°C° 0.1 mm 12 mps 714 mmHg 86%
    04:00 +8°C° 0.7 mm 12 mps 714 mmHg 88%
    05:00 +8°C° 0.7 mm 12 mps 715 mmHg 89%
    06:00 +8°C° 0.7 mm 11 mps 715 mmHg 91%
    07:00 +8°C° 1.5 mm 11 mps 715 mmHg 89%
    08:00 +8°C° 1.5 mm 10 mps 716 mmHg 87%
    09:00 +7°C° 1.5 mm 10 mps 716 mmHg 85%
    10:00 +8°C° 0.5 mm 9 mps 717 mmHg 75%
    11:00 +8°C° 0.5 mm 9 mps 717 mmHg 66%
    12:00 +8°C° 0.5 mm 9 mps 717 mmHg 56%
    13:00 +9°C° 0 mm 8 mps 717 mmHg 54%
    14:00 +10°C° 0 mm 8 mps 717 mmHg 52%
    15:00 +10°C° 0 mm 8 mps 717 mmHg 50%
    16:00 +10°C° 0 mm 6 mps 717 mmHg 54%
    17:00 +10°C° 0 mm 4 mps 717 mmHg 58%
    18:00 +10°C° 0 mm 3 mps 718 mmHg 62%
    19:00 +9°C° 0 mm 3 mps 718 mmHg 63%
    20:00 +9°C° 0 mm 3 mps 719 mmHg 64%
    21:00 +9°C° 0 mm 3 mps 719 mmHg 64%
    22:00 +9°C° 0 mm 3 mps 719 mmHg 67%
    23:00 +8°C° 0 mm 3 mps 719 mmHg 69%

    25 January, Friday

    Time Temperature Precipitation Wind Pressure Humidity
    00:00 +8°C° 0 mm 3 mps 719 mmHg 71%
    01:00 +8°C° 0 mm 3 mps 719 mmHg 69%
    02:00 +8°C° 0 mm 2 mps 720 mmHg 68%
    03:00 +8°C° 0 mm 2 mps 720 mmHg 66%
    04:00 +7°C° 0 mm 2 mps 720 mmHg 70%
    05:00 +7°C° 0 mm 2 mps 720 mmHg 74%
    06:00 +6°C° 0 mm 2 mps 720 mmHg 77%
    07:00 +7°C° 0 mm 2 mps 721 mmHg 73%
    08:00 +8°C° 0 mm 2 mps 721 mmHg 69%
    09:00 +9°C° 0 mm 2 mps 722 mmHg 65%
    10:00 +10°C° 0 mm 3 mps 722 mmHg 57%
    11:00 +11°C° 0 mm 3 mps 722 mmHg 50%
    12:00 +12°C° 0 mm 3 mps 723 mmHg 42%
    13:00 +12°C° 0 mm 3 mps 722 mmHg 40%
    14:00 +13°C° 0 mm 3 mps 722 mmHg 38%
    15:00 +13°C° 0 mm 3 mps 722 mmHg 36%
    16:00 +13°C° 0 mm 2 mps 722 mmHg 42%
    17:00 +11°C° 0 mm 1 mps 722 mmHg 49%
    18:00 +10°C° 0 mm 1 mps 722 mmHg 55%
    19:00 +10°C° 0 mm 1 mps 722 mmHg 55%
    20:00 +9°C° 0 mm 1 mps 722 mmHg 55%
    21:00 +9°C° 0 mm 1 mps 723 mmHg 55%
    22:00 +9°C° 0 mm 1 mps 722 mmHg 54%
    23:00 +9°C° 0 mm 1 mps 722 mmHg 52%
    Show more